Regional Weather Roundup
Issued by NWS

Home | Current Version | Previous Version | Text Only | Print | Product List | Glossary On
Versions: 1 2 3 4 5 6 7 8 9 10 11 12 13 14 15 16 17 18 19 20 21 22 23 24 25 26 27 28 29 30 31 32 33 34 35 36 37 38 39 40 41 42 43 44 45 46 47 48 49 50
133
ASUS43 KIND 241309
RWRIN

WEATHER ROUNDUP FOR INDIANA
NATIONAL WEATHER SERVICE INDIANAPOLIS IN
900 AM EDT WED MAY 24 2017

NOTE: "FAIR" INDICATES FEW OR NO CLOUDS BELOW 12,000 FEET WITH NO
SIGNIFICANT WEATHER AND/OR OBSTRUCTIONS TO VISIBILITY.

* - STATION DOES NOT REPORT WEATHER SUCH AS PRECIPITATION OR FOG.

+ - STATION NOT QUALITY CONTROLLED BY THE NATIONAL WEATHER SERVICE.
    USE DATA WITH CAUTION...ESPECIALLY DEWPOINT AND RELATIVE
    HUMIDITY OBSERVATIONS.

INZ001>003-010>013-019-020-241400-
NORTHWEST INDIANA

CITY           SKY/WX    TMP DP  RH WIND       PRES   REMARKS
GARY /AIRPORT/ CLOUDY    54  52  94 NW5       29.58S FOG
KNOX *+        CLOUDY    55  52  88 NE7       29.55S
LA PORTE +     CLOUDY    55  53  94 N8        29.56F FOG
MICHIGAN CITY+ CLOUDY    54  54 100 NE6       29.57F
MONTICELLO +   CLOUDY    58  55  90 N6        29.53S
RENSSELAER +   CLOUDY    59  54  82 N7        29.55R FOG
VALPARAISO     CLOUDY    57  54  89 NE7       29.56S

$$

LMZ046-743>745-241400-
SOUTHERN LAKE MICHIGAN

STATION/POSITION TIME  TEMP    WIND        PRES    WAVE
                       AIR SEA DIR/SP/G            HT
                 (UTC) (F)     (DEG/KT/KT) (MB)    (FT)
BURNS HARBOR     1240   53      40/ 17/ 20 1001.4F
MICHIGAN CITY    1240   52      10/ 20/ 22   N/A
5NW MICH CITY    1300   52 53   40/ 16/ 21   N/A     3

$$

INZ004-005-014>016-021>024-241400-
NORTH CENTRAL INDIANA

CITY           SKY/WX    TMP DP  RH WIND       PRES   REMARKS
ELKHART        SUNNY     59  54  82 E7        29.56R
GOSHEN         CLOUDY    61  52  72 E7        29.55S HAZE
LOGANSPORT +   MOSUNNY   59  54  82 NE3       29.54S
PERU/GRISSOM   PTSUNNY   60  57  89 E3        29.52F
ROCHESTER +    PTSUNNY   61  54  77 NE5       29.54F
SOUTH BEND     CLOUDY    59  54  83 VRB3      29.57S
WARSAW +       PTSUNNY   61  52  72 E7        29.54F

$$

INZ006>009-017-018-025>027-241400-
NORTHEAST INDIANA

CITY           SKY/WX    TMP DP  RH WIND       PRES   REMARKS
ANGOLA *+      MOSUNNY   57  54  88 E7        29.57R
AUBURN +       RAIN      59  52  77 E3        29.58R
FORT WAYNE     DRIZZLE   59  53  80 NE7       29.55S
HUNTINGTON +   CLOUDY    60  56  85 E6        29.54F
KENDALLVILLE + PTSUNNY   58  53  82 E6        29.57R

$$

INZ028-029-035-036-043>045-051>053-241400-
WEST CENTRAL INDIANA

CITY           SKY/WX    TMP DP  RH WIND       PRES   REMARKS
CRAWFORDSVL +  CLOUDY    56  56 100 N6        29.53F FOG
GREENCASTLE +  CLOUDY    57  54  88 NE5       29.54S FOG
LAFAYETTE      CLOUDY    58  56  93 N5        29.53F
TERRE HAUTE    CLOUDY    58  54  86 NW8       29.54S

$$

INZ030>032-037>040-046>048-054>057-064-065-241400-
CENTRAL INDIANA

CITY           SKY/WX    TMP DP  RH WIND       PRES   REMARKS
ANDERSON       SUNNY    N/A N/A N/A W6        29.54
CP ATTERBURY + CLOUDY    61  55  82 CALM      29.52F
COLUMBUS       CLOUDY    59  55  88 CALM      29.52F
FISHERS *+     PTSUNNY   59  59 100 CALM      29.52
FRANKFORT +    CLOUDY    60  57  91 N3        29.55S FOG
GREENWOOD *+   CLOUDY    61  56  84 N3        29.52F
INDIANAPOLIS   CLOUDY    60  57  89 NE3       29.52F FOG
-EAGLE CREEK   CLOUDY    60  57  89 NW3       29.51F FOG
KOKOMO +       CLOUDY    59  55  87 VRB3      29.54F
MT COMFORT *+  PTSUNNY   61  55  82 N3        29.52F
SHELBYVILLE    LGT RAIN  66  55  67 E5        29.51F
ZIONSVILLE +   LGT RAIN  57  55  94 N3        29.53F

$$

INZ033-034-041-042-049-050-058-059-241400-
EAST CENTRAL INDIANA

CITY           SKY/WX    TMP DP  RH WIND       PRES   REMARKS
MUNCIE         CLOUDY    63  56  78 SE5       29.53F
RICHMOND +     CLOUDY    59  59 100 E9        29.54F FOG

$$

INZ060-061-067>069-081>083-085>088-241400-
SOUTHWEST INDIANA

CITY           SKY/WX    TMP DP  RH WIND       PRES   REMARKS
EVANSVILLE     RAIN      60  57  89 VRB6      29.53F FOG
HUNTINGBURG *+ LGT RAIN  58  56  93 NW5       29.53F
WASHINGTON +   LGT RAIN  58  57  94 NW7       29.53S

$$

INZ062-063-066-070>080-084-089>092-241400-
SOUTH CENTRAL AND SOUTHEAST INDIANA

CITY           SKY/WX    TMP DP  RH WIND       PRES   REMARKS
BLOOMINGTON    CLOUDY    59  54  83 VRB3      29.52S
MADISON *+     CLOUDY    61  59  94 CALM      29.53S
NORTH VERNON + LGT RAIN  59  57  94 CALM      29.53
SEYMOUR +      CLOUDY    63  59  88 CALM      29.51S

$$





USA.gov is the U.S. government's official web portal to all federal, state and local government web resources and services.